Location: Newark
(50.0336°N, 22.0047°E)
Time: 02:37:21
(UTC+00:00)

Envisat - Pass Details

Date: 04 February 2020
Orbit: 764 x 766 km, 98.1° (Epoch: 25 February)

Event Time Altitude Azimuth Distance (km) Brightness Sun altitude
Rises 16:17:16 0° 169° (SSE) 3,221 6.3 -7.9°
Reaches altitude 10° 16:19:33 10° 171° (S) 2,299 5.6 -8.3°
Maximum altitude 16:24:38 76° 256° (WSW) 795 3.3 -9.0°
Drops below altitude 10° 16:29:44 10° 343° (NNW) 2,315 5.5 -9.8°
Sets 16:32:04 0° 345° (NNW) 3,246 6.3 -10.2°
